Location: downtown San Diego
(32.7310°N, 117.1990°W)
Time: 01:52:25
(UTC-07:00)

Daily predictions for brighter satellites

Satellite Brightness Start Highest point End
(mag) Time Altitude Azimuth Time Altitude Azimuth Time Altitude Azimuth
ATLAS 2AS CENTAUR R/B 4.4 00:35:01 10° NW 00:38:02 24° WNW 00:38:02 24° WNW
CZ-2D R/B 4.1 01:33:33 10° NE 01:35:55 22° ENE 01:35:55 22° ENE
Resurs 1-4 Rocket 3.9 01:42:38 10° NNE 01:45:12 25° NE 01:45:12 25° NE
Lacrosse 5 4.1 01:58:14 21° NNW 01:58:14 21° NNW 02:00:49 10° NNE
BREEZE-M DEB (TANK) 4.4 01:59:11 34° NE 01:59:11 34° NE 02:04:12 10° NE
Cosmos 2227 Rocket 4.2 02:02:12 10° N 02:06:38 23° ENE 02:08:23 20° E
Cosmos 2297 Rocket 3.6 02:04:34 10° N 02:09:38 32° ENE 02:09:51 32° ENE
USA 215 3.4 02:12:05 67° NNE 02:12:05 67° NNE 02:18:05 10° NW
SL-16 R/B 3.2 02:14:31 49° ENE 02:14:37 49° ENE 02:20:37 10° N
USA 281 3.2 02:27:06 75° NNE 02:27:06 75° NNE 02:33:19 10° NNW
COSMOS 2455 3.3 02:22:19 10° NNW 02:27:35 57° NNE 02:27:35 57° NNE
Lacrosse 4 Rocket 3.5 02:34:30 27° NE 02:34:30 27° NE 02:36:39 10° NE
Cosmos 1725 Rocket 4.3 02:42:19 10° N 02:48:29 60° E 02:49:10 57° ESE
Cosmos 2251 Rocket 4.3 02:44:04 10° NNW 02:47:42 45° N 02:47:42 45° N
Cosmos 2219 3.4 02:47:08 10° NNW 02:52:43 69° ENE 02:52:43 69° ENE
Cosmos 1459 Rocket 4.3 02:48:36 10° NNW 02:53:42 56° NW 02:53:42 56° NW
IRS-1D 4.0 02:49:45 10° NNE 02:54:41 59° E 02:54:41 59° E
IDEFIX/ARIANE 42P 3.6 02:53:01 10° NNE 02:57:53 37° E 02:58:22 36° ESE
Cosmos 614 Rocket 4.4 02:56:35 10° NNW 03:00:39 56° N 03:00:39 56° N
OAO 2 Rocket 3.9 03:03:19 55° E 03:03:19 55° E 03:07:28 10° ENE
Cosmos 2016 Rocket 3.8 02:57:03 10° N 03:03:17 85° W 03:03:17 85° W
BREEZE M DEB (TANK) 4.3 03:02:30 42° SE 03:03:29 45° ESE 03:24:01 10° ENE
BREEZE-M DEB (TANK) 4.0 03:07:51 29° NNE 03:07:51 29° NNE 03:09:08 10° NE
Cosmos 2061 Rocket 3.9 03:02:47 10° N 03:09:10 82° W 03:09:35 77° SW
Timation 2 Rocket 3.7 03:03:11 10° NNW 03:09:11 89° ENE 03:09:41 76° SSE
Meteor 2-5 Rocket 4.2 03:09:14 48° SE 03:10:15 54° E 03:15:45 10° NNE
Cosmos 2285 Rocket 4.0 03:11:54 65° SSE 03:12:50 77° ESE 03:19:15 10° NNE
Atlas Centaur 2 3.8 03:15:15 29° SSE 03:15:15 29° SSE 03:20:47 10° E
ADEOS II 2.2 03:09:54 10° N 03:14:41 65° NW 03:14:41 65° NW
Cosmos 2360 4.5 03:18:02 53° WNW 03:18:02 53° WNW 03:23:30 10° N
CZ-2D R/B 3.5 03:13:36 10° NNW 03:17:15 26° NW 03:17:15 26° NW
Cosmos 1697 Rocket 3.4 03:21:37 40° WNW 03:21:37 40° WNW 03:26:39 10° N
ARIANE 5 R/B 3.6 03:18:54 10° NNE 03:23:38 37° E 03:25:20 29° SE
Cosmos 1420 Rocket 4.1 03:24:12 61° SE 03:24:45 66° ESE 03:29:53 10° NNE
Meteor 1-16 Rocket 4.4 03:20:47 10° NNW 03:26:15 56° W 03:26:15 56° W
Resurs 1-4 Rocket 3.7 03:23:06 10° NNW 03:26:17 21° NW 03:26:17 21° NW
NOSS 3-2 (A) 4.5 03:31:21 25° SSE 03:33:19 32° ESE 03:38:23 10° NE
Cosmos 1980 Rocket 2.1 03:32:55 62° WSW 03:33:30 66° WNW 03:39:08 10° NNE
Cosmos 1626 4.3 03:39:23 17° NNW 03:39:23 17° NNW 03:40:37 10° NNW
CZ-4B R/B 3.9 03:34:32 10° NNE 03:39:32 60° ESE 03:41:17 39° SSE
APEX 4.0 03:40:46 10° NNW 03:45:43 90° WSW 03:51:51 10° SSE
Cosmos 407 Rocket 3.4 03:41:08 10° NNW 03:46:29 77° WSW 03:48:26 40° S
Cosmos 2227 Rocket 2.7 03:45:32 10° NW 03:50:07 39° W 03:50:07 39° W
CBERS-1 4.4 03:46:08 10° N 03:50:59 45° WNW 03:51:30 43° W
Cosmos 1300 2.5 03:47:38 10° N 03:51:23 86° NNW 03:51:23 86° NNW
Cosmos 2297 Rocket 3.5 03:48:45 10° NW 03:51:35 23° WNW 03:51:35 23° WNW
ADEOS Rocket 3.4 03:49:10 25° S 03:53:48 68° W 04:01:31 10° NNW
Cosmos 2278 4.0 03:52:41 43° WSW 03:53:54 50° WNW 03:59:26 10° N
MSX 3.7 03:51:12 10° N 03:56:59 81° WNW 03:59:31 36° SSW
SL-16 R/B 3.9 03:59:36 20° W 03:59:36 20° W 04:03:00 10° NW
ISS -0.3 04:03:24 10° N 04:04:45 12° NNE 04:06:06 10° NE
Cosmos 2082 3.6 04:00:17 10° NNW 04:05:55 63° WSW 04:11:26 10° S
SL-16 R/B 2.6 04:04:07 23° S 04:07:39 61° ESE 04:13:14 10° NNE
Cosmos 1452 Rocket 3.5 04:05:20 33° SSW 04:07:47 88° ESE 04:13:05 10° NNE
Cosmos 1606 Rocket 4.1 04:06:37 10° N 04:11:00 60° E 04:15:21 10° SSE
Lacrosse 4 Rocket 3.7 04:10:47 13° WNW 04:11:16 13° NW 04:13:28 10° NNW
IRS-1C 4.3 04:06:09 10° N 04:11:20 54° WNW 04:13:25 33° SW
CENTAUR R/B 3.2 04:07:55 18° S 04:11:43 44° ESE 04:17:41 10° NE
Cosmos 292 Rocket 3.7 04:11:22 37° SSW 04:13:13 71° WNW 04:18:05 10° NNE
Cosmos 1954 Rocket 4.0 04:09:04 10° NNW 04:14:22 84° ENE 04:19:40 10° SSE
Cosmos 2228 2.9 04:12:33 10° N 04:16:52 88° E 04:20:33 14° S
Cosmos 1340 3.8 04:18:13 26° WNW 04:18:13 26° WNW 04:21:11 10° NNW
Cosmos 2346 Rocket 4.4 04:12:49 15° S 04:18:02 84° E 04:24:07 10° N
Spot 4 Rocket 4.0 04:17:30 10° NNE 04:22:40 90° ESE 04:26:34 18° SSW
CZ-3B R/B 2.7 04:23:12 18° SSE 04:23:12 18° SSE 04:25:31 10° ESE
CZ-2C R/B 3.2 04:24:19 10° NNE 04:28:20 65° ESE 04:31:50 13° S
Cosmos 1110 Rocket 4.3 04:24:46 13° S 04:29:22 64° ESE 04:34:30 10° NNE
SEDSat Delta rocket 4.2 04:27:07 24° SSW 04:29:31 36° SSE 04:33:54 10° E
Cosmos 1513 Rocket 4.4 04:25:18 10° N 04:31:28 79° W 04:37:31 10° S
Aureole 2 Rocket 1.7 04:31:21 10° NNW 04:34:03 80° ENE 04:36:43 10° SSE
Cosmos 2322 Rocket 2.2 04:30:51 15° SSW 04:35:34 83° ESE 04:41:17 10° NNE
Cosmos 1464 Rocket 3.9 04:29:58 10° N 04:36:09 79° W 04:42:23 10° S
SWAS 4.4 04:33:36 23° SSW 04:36:13 76° WNW 04:40:32 10° NNE
CZ-2C R/B 2.5 04:31:39 10° NNE 04:36:50 89° ESE 04:42:02 10° SSW
IDEFIX/ARIANE 42P 4.0 04:33:12 10° NNW 04:37:09 22° WNW 04:39:11 18° W
Cosmos 2034 Rocket 4.1 04:39:27 10° N 04:45:49 85° E 04:52:05 10° S
Meteor 1-21 Rocket 4.3 04:40:14 10° S 04:45:51 85° E 04:51:26 10° N
OAO 2 Rocket 3.7 04:42:15 12° W 04:47:09 68° N 04:52:27 10° E
Meteor 2-10 Rocket 3.8 04:41:52 10° NNW 04:47:23 55° W 04:52:39 10° S
Cosmos 2263 Rocket 2.2 04:42:00 10° NNW 04:47:42 89° WSW 04:53:22 10° SSE
OAO 1 Rocket 4.5 04:45:25 16° W 04:49:41 82° NNW 04:55:03 10° ENE
USA 32 4.0 04:46:55 10° N 04:52:11 79° W 04:57:25 10° S
ALOS 2.5 04:48:54 10° NNE 04:53:33 72° ESE 04:58:11 10° S
SL-08 R/B 3.8 04:49:35 10° SSW 04:53:56 37° W 04:58:16 10° NNW
Cosmos 2360 Rocket 2.4 04:53:17 10° SSW 04:58:55 73° ESE 05:04:33 10° NNE
Cosmos 2219 Rocket 4.4 04:55:32 10° SSE 04:59:59 24° E 05:04:25 10° NE
NOSS 3-2 (C) 3.2 04:55:09 11° SSW 05:00:21 85° WNW 05:06:24 10° NNE
Cosmos 1441 Rocket 4.2 04:56:52 10° S 05:00:37 49° E 05:04:27 10° NNE
ARIANE 5 R/B 4.0 04:58:41 10° NNW 05:02:25 21° WNW 05:05:41 12° WSW
Atlas Centaur 2 2.8 04:57:48 13° WSW 05:04:12 55° SSE 05:09:58 10° E
ATLAS 2A CENTAUR R/B 3.2 05:00:51 13° SW 05:04:17 43° SSE 05:16:55 10° E
Cosmos 2237 4.2 04:58:52 10° SSW 05:04:34 81° WNW 05:10:18 10° NNE
SL-24 R/B 3.7 05:05:50 10° S 05:09:29 87° WSW 05:13:27 10° NNW
PSLV R/B 3.5 05:06:21 10° N 05:10:31 64° WNW 05:14:41 10° SSW
OAO 3 Copernicus 4.3 05:06:34 11° WSW 05:11:28 90° SSE 05:16:33 10° ENE
CZ-2C R/B 2.7 05:15:06 10° WSW 05:16:32 13° SSW 05:18:02 10° S
SJ-6F 4.4 05:19:43 10° N 05:23:47 80° WNW 05:27:50 10° SSW
NOSS 3-2 (A) 4.3 05:19:10 10° WSW 05:23:59 30° NW 05:29:20 10° NNE
Cosmos 2227 4.5 05:20:34 10° NW 05:25:53 44° WSW 05:31:11 10° S
